Location: Arrakis Observatory
(44.1122°N, 95.7153°W)
Time: 14:04:39
(UTC-06:00)

Iridium 35 - Visible Passes

Search period start: 24 November 2014 00:00
Search period end: 04 December 2014 00:00
Orbit: 776 x 779 km, 86.4° (Epoch: 24 November)

Date Brightness Start Highest point End Pass type
(mag) Time Alt. Az. Time Alt. Az. Time Alt. Az.
24 Nov 7.7 05:49:55 10° NNE 05:53:23 18° ENE 05:56:49 10° ESE visible
25 Nov 5.3 06:55:49 10° N 07:01:03 77° E 07:06:15 10° S visible
25 Nov 7.1 19:54:14 10° SSW 19:55:37 18° SSW 19:55:37 18° SSW visible
26 Nov 6.3 06:22:28 10° N 06:27:26 43° E 06:32:22 10° SSE visible
26 Nov 6.0 19:20:32 10° S 19:23:32 36° S 19:23:32 36° S visible
27 Nov 7.3 05:49:27 10° NNE 05:53:41 25° ENE 05:57:54 10° SE visible
27 Nov 5.3 18:47:19 10° SSE 18:51:32 44° ESE 18:51:32 44° ESE visible
27 Nov 7.3 20:29:20 10° SW 20:32:07 20° W 20:32:07 20° W visible
28 Nov 7.9 05:17:05 10° NE 05:19:48 14° ENE 05:22:29 10° ESE visible
28 Nov 5.0 06:55:56 10° N 07:01:09 75° W 07:06:19 10° S visible
28 Nov 5.8 18:14:40 10° SE 18:18:58 27° E 18:19:38 26° ENE visible
28 Nov 6.3 19:54:42 10° SSW 19:59:30 37° W 20:00:13 36° WNW visible
29 Nov 5.6 06:22:25 10° N 06:27:36 61° E 06:32:44 10° SSE visible
29 Nov 6.5 17:42:49 10° ESE 17:45:46 15° ENE 17:47:50 12° NE visible
29 Nov 5.3 19:20:41 10° SSW 19:25:51 67° W 19:28:26 30° N visible
30 Nov 6.7 05:49:11 10° NNE 05:53:56 34° E 05:58:38 10° SE visible
30 Nov 4.9 18:47:10 10° S 18:52:19 69° E 18:56:50 14° N visible
30 Nov 7.7 20:30:34 10° WSW 20:33:36 15° WNW 20:36:38 10° NW visible
01 Dec 7.6 05:16:21 10° NNE 05:20:08 20° ENE 05:23:52 10° ESE visible
01 Dec 5.2 06:56:08 10° NNW 07:01:11 52° W 07:06:13 10° SSW visible
01 Dec 5.5 18:14:10 10° SSE 18:18:55 38° E 18:23:42 10° NNE visible
01 Dec 6.9 19:55:22 10° SW 19:59:44 27° WNW 20:04:07 10° NNW visible
02 Dec 8.1 04:44:45 10° NE 04:46:10 11° ENE 04:47:36 10° E visible
02 Dec 5.1 06:22:28 10° N 06:27:43 87° E 06:32:56 10° S visible
02 Dec 6.1 17:41:46 10° SE 17:45:39 22° E 17:49:32 10° NNE visible
02 Dec 5.9 19:21:00 10° SSW 19:26:00 47° W 19:31:02 10° N visible
03 Dec 6.0 05:49:04 10° N 05:54:07 48° E 05:59:08 10° SSE visible
03 Dec 5.0 18:47:12 10° S 18:52:24 85° W 18:57:38 10° N visible
03 Dec 8.0 20:32:49 10° W 20:33:58 11° WNW 20:35:06 10° NW visible
